Simultaneous Nadir Overpasses (SNOs) Predictions

Prediction of SNOs between NOAA-19 and TERRA Satellite Orbit:

Table of predicted SNOs for the next 14.0 days since TLE Epoch: 10/23/2016
Index Date (NOAA-19) Time (NOAA-19) Lat,Lon (NOAA-19) SZA (NOAA-19 ) Date (TERRA) Time (TERRA) Lat,Lon (TERRA) SZA (TERRA ) Distance(km) Time Diff (sec)
1 10/24/2016 08:15:14 75.11, 62.68 87.22 10/24/2016 08:16:19 74.98, 65.83 87.27 91.50 65
2 10/24/2016 09:05:55 -74.39,-127.94 93.39 10/24/2016 09:05:58 -74.40,-127.98 93.38 2.14 3
3 10/26/2016 13:49:01 -74.80, 160.20 92.28 10/26/2016 13:50:11 -74.72, 161.71 92.27 45.18 70
4 10/26/2016 14:39:58 74.39, -31.39 87.39 10/26/2016 14:39:43 74.39, -31.46 87.38 2.00 15
5 10/28/2016 19:22:57 74.46,-102.28 88.19 10/28/2016 19:24:01 74.49,-102.29 88.23 3.79 64
6 10/28/2016 20:13:52 -74.42, 65.08 91.84 10/28/2016 20:13:30 -74.43, 65.19 91.83 3.23 22
7 10/31/2016 00:56:49 -74.47, -5.73 91.08 10/31/2016 00:57:49 -74.48, -5.77 91.05 1.87 60
8 10/31/2016 01:47:54 74.40, 161.68 88.88 10/31/2016 01:47:16 74.40, 161.68 88.87 0.17 38
9 11/02/2016 06:30:53 74.49, 90.76 89.66 11/02/2016 06:31:36 74.50, 90.83 89.68 2.59 43
10 11/02/2016 07:21:46 -74.38,-101.68 90.42 11/02/2016 07:21:06 -74.39,-101.80 90.43 3.98 40
11 11/04/2016 12:04:45 -74.48,-172.63 89.66 11/04/2016 12:05:27 -74.49,-172.66 89.64 1.39 42
